Weather History for KSKA - February, 2013

Change the Weather History Date:

Sunday, February 17, 2013

  Actual Average Record
Temperature  
Mean Temperature 34 °F -  
Max Temperature 41 °F 38 °F 54 °F (2007)
Min Temperature 28 °F 24 °F 1 °F (2006)
Degree Days  
Heating Degree Days 30    
Moisture  
Dew Point 27 °F    
Average Humidity 72    
Maximum Humidity 93    
Minimum Humidity 57    
Precipitation  
Precipitation 0.00 in - - ()
Sea Level Pressure  
Sea Level Pressure 30.04 in    
Wind  
Wind Speed 11 mph (WSW)    
Max Wind Speed 16 mph    
Max Gust Speed -    
Visibility 10 miles    
Events Snow    
Averages and records for this station are not official NWS values.
T = Trace of Precipitation, MM = Missing Value Source: NWS Daily Summary

Daily Weather History Graph

Daily Weather History Graph

Search for Another Location

Airport or City:

Trip Planner

Search our weather history database for the weather conditions in past years. The results will help you decide how hot, cold, wet, or windy it might be!

Date:

Astronomy

Feb. 17, 2013 Rise Set
Actual Time 6:52 AM PST 5:17 PM PST
Civil Twilight 6:20 AM PST 5:49 PM PST
Nautical Twilight 5:44 AM PST 6:25 PM PST
Astronomical Twilight 5:09 AM PST 7:00 PM PST
Moon 10:14 AM PST (2/17) 12:50 AM PST (2/17)
Length of Visible Light 11h 28m
Length of Day
10h 25m
Waxing Crescent, 50% of the Moon is Illuminated
Feb 17
Waxing Crescent
Feb 17
First Quarter
Feb 25
Full
Mar 4
Last Quarter
Mar 11
New

Hourly Weather History & Observations

Time (PST) Temp. Windchill Dew Point Humidity Pressure Visibility Wind Dir Wind Speed Gust Speed Precip Events Conditions
12:58 AM 32.5 °F 24.2 °F 28.2 °F 84% 29.99 in 10.0 mi SW 10.4 mph - N/A   Mostly Cloudy
1:58 AM 32.2 °F 23.8 °F 27.5 °F 83% 30.01 in 10.0 mi SW 10.4 mph - N/A   Overcast
2:47 AM 32.0 °F 21.6 °F 28.4 °F 87% 29.96 in 10.0 mi WSW 15.0 mph - N/A   Overcast
2:58 AM 31.6 °F 21.2 °F 28.0 °F 87% 30.02 in 6.0 mi West 15.0 mph - 0.00 in Snow Light Snow
3:03 AM 32.0 °F 21.6 °F 28.4 °F 87% 29.96 in 3.0 mi West 15.0 mph - N/A Snow Light Snow
3:13 AM 32.0 °F 25.6 °F 28.4 °F 87% 29.96 in 3.0 mi West 6.9 mph - N/A Snow Light Snow
3:30 AM 32.0 °F 24.8 °F 30.2 °F 93% 29.95 in 10.0 mi SSW 8.1 mph - N/A   Overcast
3:41 AM 32.0 °F 27.5 °F 30.2 °F 93% 29.96 in 10.0 mi SSW 4.6 mph - N/A Snow Light Snow
3:46 AM 33.8 °F 29.6 °F 28.4 °F 81% 29.95 in 10.0 mi South 4.6 mph - N/A Snow Light Snow
3:55 AM 32.0 °F 24.8 °F 28.4 °F 87% 29.96 in 10.0 mi SW 8.1 mph - N/A   Overcast
3:58 AM 32.5 °F 25.5 °F 28.2 °F 84% 30.02 in 10.0 mi SSW 8.1 mph - 0.00 in   Overcast
4:58 AM 30.9 °F 24.3 °F 26.8 °F 85% 30.04 in 10.0 mi SSW 6.9 mph - N/A   Overcast
5:58 AM 29.3 °F 21.5 °F 25.3 °F 85% 30.05 in 10.0 mi SW 8.1 mph - N/A   Overcast
6:42 AM 28.4 °F 20.4 °F 24.8 °F 86% 29.98 in 10.0 mi SW 8.1 mph - N/A   Clear
6:53 AM 28.4 °F 20.4 °F 24.8 °F 86% 29.98 in 10.0 mi SW 8.1 mph - N/A   Clear
6:58 AM 28.4 °F 19.7 °F 24.8 °F 86% 30.06 in 10.0 mi SW 9.2 mph - 0.00 in   Clear
7:58 AM 30.7 °F 24.1 °F 25.0 °F 79% 30.07 in 10.0 mi SW 6.9 mph - N/A   Clear
8:26 AM 32.0 °F 22.5 °F 24.8 °F 75% 30.00 in 10.0 mi WSW 12.7 mph - N/A   Clear
8:36 AM 33.8 °F 24.3 °F 24.8 °F 70% 30.01 in 10.0 mi WSW 13.8 mph - N/A   Clear
8:58 AM 34.7 °F 25.5 °F 26.2 °F 71% 30.07 in 10.0 mi WSW 13.8 mph - 0.00 in   Clear
9:00 AM 35.6 °F 26.2 °F 26.6 °F 70% 30.01 in 10.0 mi WSW 15.0 mph - N/A   Clear
9:06 AM 35.6 °F 26.6 °F 26.6 °F 70% 30.01 in 10.0 mi WSW 13.8 mph - N/A   Clear
9:09 AM 35.6 °F 26.2 °F 26.6 °F 70% 30.01 in 10.0 mi WSW 15.0 mph - N/A   Clear
9:20 AM 35.6 °F 27.1 °F 26.6 °F 70% 30.01 in 10.0 mi West 12.7 mph - N/A   Clear
9:50 AM 37.4 °F 28.2 °F 26.6 °F 65% 30.02 in 10.0 mi West 16.1 mph - N/A   Clear
9:58 AM 37.6 °F 30.0 °F 26.8 °F 65% 30.09 in 10.0 mi West 11.5 mph - 0.00 in   Clear
10:08 AM 37.4 °F 28.5 °F 26.6 °F 65% 30.02 in 10.0 mi West 15.0 mph - N/A   Clear
10:45 AM 39.2 °F 30.8 °F 26.6 °F 61% 30.03 in 10.0 mi WSW 15.0 mph - N/A   Clear
10:52 AM 39.2 °F 30.8 °F 26.6 °F 61% 30.03 in 10.0 mi West 15.0 mph - N/A   Clear
10:58 AM 39.6 °F 31.7 °F 27.0 °F 61% 30.09 in 10.0 mi West 13.8 mph - 0.00 in   Clear
11:02 AM 41.0 °F 33.5 °F 26.6 °F 57% 30.03 in 10.0 mi West 13.8 mph - N/A   Clear
11:12 AM 39.2 °F 31.2 °F 26.6 °F 61% 30.04 in 10.0 mi WSW 13.8 mph - N/A   Clear
11:17 AM 41.0 °F 33.1 °F 26.6 °F 57% 30.04 in 10.0 mi WSW 15.0 mph - N/A   Clear
11:19 AM 41.0 °F 33.5 °F 26.6 °F 57% 30.04 in 10.0 mi West 13.8 mph - N/A   Clear
11:24 AM 41.0 °F 33.1 °F 28.4 °F 61% 30.04 in 10.0 mi West 15.0 mph - N/A   Clear
11:27 AM 41.0 °F 32.8 °F 26.6 °F 57% 30.04 in 10.0 mi West 16.1 mph - N/A   Clear
11:58 AM 41.0 °F 33.1 °F 27.1 °F 58% 30.10 in 10.0 mi West 15.0 mph - 0.00 in   Clear
12:34 PM 41.0 °F 34.3 °F 28.4 °F 61% 30.03 in 10.0 mi SW 11.5 mph - N/A   Scattered Clouds
12:50 PM 41.0 °F 33.5 °F 28.4 °F 61% 30.03 in 10.0 mi WSW 13.8 mph - N/A   Mostly Cloudy
12:58 PM 40.8 °F 33.7 °F 28.9 °F 63% 30.09 in 10.0 mi WSW 12.7 mph - 0.00 in   Mostly Cloudy
12:59 PM 41.0 °F 33.9 °F 30.2 °F 65% 30.03 in 10.0 mi WSW 12.7 mph - N/A   Light Drizzle
1:11 PM 41.0 °F 34.7 °F 28.4 °F 61% 30.03 in 10.0 mi SW 10.4 mph - N/A   Mostly Cloudy
1:44 PM 41.0 °F 34.3 °F 28.4 °F 61% 30.03 in 10.0 mi WSW 11.5 mph - N/A   Mostly Cloudy
1:51 PM 41.0 °F 33.9 °F 28.4 °F 61% 30.03 in 10.0 mi West 12.7 mph - N/A   Scattered Clouds
1:58 PM 40.5 °F 33.6 °F 28.6 °F 63% 30.09 in 10.0 mi WSW 11.5 mph - 0.00 in   Scattered Clouds
2:17 PM 41.0 °F 33.1 °F 28.4 °F 61% 30.02 in 10.0 mi West 15.0 mph - N/A   Scattered Clouds
2:31 PM 41.0 °F 33.9 °F 28.4 °F 61% 30.03 in 10.0 mi West 12.7 mph - N/A   Mostly Cloudy
2:58 PM 40.8 °F 33.7 °F 28.4 °F 61% 30.09 in 10.0 mi West 12.7 mph - 0.00 in   Overcast
3:58 PM 39.6 °F 31.3 °F 27.5 °F 62% 30.09 in 10.0 mi WSW 15.0 mph - N/A   Clear
4:58 PM 37.9 °F 31.5 °F 26.8 °F 64% 30.09 in 10.0 mi WSW 9.2 mph - N/A   Mostly Cloudy
5:58 PM 32.4 °F 24.6 °F 25.3 °F 75% 30.12 in 10.0 mi West 9.2 mph - N/A   Clear
6:12 PM 32.0 °F 24.2 °F 24.8 °F 75% 30.04 in 10.0 mi SW 9.2 mph - N/A   Clear
6:27 PM 32.0 °F 26.4 °F 24.8 °F 75% 30.04 in 10.0 mi WSW 5.8 mph - N/A   Clear
6:58 PM 32.0 °F 25.6 °F 24.8 °F 75% 30.12 in 10.0 mi WSW 6.9 mph - 0.00 in   Partly Cloudy
7:39 PM 32.0 °F - 23.0 °F 69% 30.05 in 10.0 mi SSW 2.3 mph - N/A   Scattered Clouds
7:58 PM 33.1 °F 30.0 °F 25.0 °F 72% 30.13 in 10.0 mi NW 3.5 mph - 0.00 in   Mostly Cloudy
7:59 PM 32.0 °F 27.5 °F 24.8 °F 75% 30.05 in 10.0 mi NW 4.6 mph - N/A   Overcast
8:52 PM 32.0 °F 24.2 °F 24.8 °F 75% 30.06 in 10.0 mi SW 9.2 mph - N/A   Mostly Cloudy
8:58 PM 32.9 °F 25.3 °F 25.2 °F 73% 30.13 in 10.0 mi SW 9.2 mph - 0.00 in   Mostly Cloudy
9:20 PM 32.0 °F 24.8 °F 24.8 °F 75% 30.06 in 10.0 mi SW 8.1 mph - N/A   Partly Cloudy
9:58 PM 32.0 °F 24.8 °F 25.2 °F 76% 30.13 in 10.0 mi WSW 8.1 mph - 0.00 in   Clear
10:10 PM 32.0 °F 26.4 °F 24.8 °F 75% 30.06 in 10.0 mi WSW 5.8 mph - N/A   Clear
10:33 PM 32.0 °F 25.6 °F 24.8 °F 75% 30.06 in 10.0 mi SSW 6.9 mph - N/A   Clear
10:37 PM 32.0 °F 25.6 °F 24.8 °F 75% 30.06 in 10.0 mi SW 6.9 mph - N/A   Clear
10:58 PM 32.7 °F 27.3 °F 25.0 °F 73% 30.13 in 10.0 mi SSW 5.8 mph - 0.00 in   Clear
11:01 PM 32.0 °F 26.4 °F 24.8 °F 75% 30.06 in 10.0 mi SW 5.8 mph - N/A   Clear
11:35 PM 32.0 °F 28.7 °F 24.8 °F 75% 30.05 in 10.0 mi South 3.5 mph - N/A   Clear
11:44 PM 30.2 °F 26.7 °F 24.8 °F 80% 30.05 in 10.0 mi SSW 3.5 mph - N/A   Clear
11:58 PM 29.3 °F 25.6 °F 24.4 °F 82% 30.12 in 10.0 mi SW 3.5 mph - 0.00 in   Clear